Year,Month,Day,Hour,Minute,Value (Times are PST for temperature in C)
2016,04,02,00,00,11.20
2016,04,02,00,01,11.20
2016,04,02,00,02,11.10
2016,04,02,00,03,11.10
2016,04,02,00,04,11.00
2016,04,02,00,05,11.00
2016,04,02,00,06,10.90
2016,04,02,00,07,10.90
2016,04,02,00,08,10.80
2016,04,02,00,09,10.80
2016,04,02,00,10,10.70
2016,04,02,00,11,10.70
2016,04,02,00,12,10.70
2016,04,02,00,13,10.50
2016,04,02,00,14,10.50
2016,04,02,00,15,10.40
2016,04,02,00,16,10.40
2016,04,02,00,17,10.30
2016,04,02,00,18,10.30
2016,04,02,00,19,10.30
2016,04,02,00,20,10.20
2016,04,02,00,21,10.20
2016,04,02,00,22,10.10
2016,04,02,00,23,10.00
2016,04,02,00,24,10.00
2016,04,02,00,25,10.00
2016,04,02,00,26,9.90
2016,04,02,00,27,9.90
2016,04,02,00,28,9.80
2016,04,02,00,29,9.80
2016,04,02,00,30,9.80
2016,04,02,00,31,9.70
2016,04,02,00,32,9.70
2016,04,02,00,33,9.70
2016,04,02,00,34,9.70
2016,04,02,00,35,9.70
2016,04,02,00,36,9.60
2016,04,02,00,37,9.60
2016,04,02,00,38,9.60
2016,04,02,00,39,9.60
2016,04,02,00,40,9.60
2016,04,02,00,41,9.60
2016,04,02,00,42,9.60
2016,04,02,00,43,9.50
2016,04,02,00,44,9.50
2016,04,02,00,45,9.40
2016,04,02,00,46,9.40
2016,04,02,00,47,9.30
2016,04,02,00,48,9.30
2016,04,02,00,49,9.20
2016,04,02,00,50,9.20
2016,04,02,00,51,9.20
2016,04,02,00,52,9.10
2016,04,02,00,53,9.10
2016,04,02,00,54,9.00
2016,04,02,00,55,9.00
2016,04,02,00,56,8.90
2016,04,02,00,57,8.90
2016,04,02,00,58,8.90
2016,04,02,00,59,8.80
2016,04,02,01,00,8.80
2016,04,02,01,01,8.70
2016,04,02,01,02,8.70
2016,04,02,01,03,8.70
2016,04,02,01,04,8.70
2016,04,02,01,05,8.60
2016,04,02,01,06,8.60
2016,04,02,01,07,8.60
2016,04,02,01,08,8.50
2016,04,02,01,09,8.50
2016,04,02,01,10,8.50
2016,04,02,01,11,8.40
2016,04,02,01,12,8.40
2016,04,02,01,13,8.40
2016,04,02,01,14,8.40
2016,04,02,01,15,8.30
2016,04,02,01,16,8.30
2016,04,02,01,17,8.30
2016,04,02,01,18,8.30
2016,04,02,01,19,8.20
2016,04,02,01,20,8.20
2016,04,02,01,21,8.20
2016,04,02,01,22,8.20
2016,04,02,01,23,8.10
2016,04,02,01,24,8.10
2016,04,02,01,25,8.10
2016,04,02,01,26,8.00
2016,04,02,01,27,8.00
2016,04,02,01,28,7.90
2016,04,02,01,29,7.90
2016,04,02,01,30,7.90
2016,04,02,01,31,7.90
2016,04,02,01,32,7.80
2016,04,02,01,33,7.80
2016,04,02,01,34,7.80
2016,04,02,01,35,7.80
2016,04,02,01,36,7.80
2016,04,02,01,37,7.70
2016,04,02,01,38,7.70
2016,04,02,01,39,7.70
2016,04,02,01,40,7.70
2016,04,02,01,41,7.70
2016,04,02,01,42,7.70
2016,04,02,01,43,7.60
2016,04,02,01,44,7.60
2016,04,02,01,45,7.60
2016,04,02,01,46,7.60
2016,04,02,01,47,7.60
2016,04,02,01,48,7.60
2016,04,02,01,49,7.50
2016,04,02,01,50,7.50
2016,04,02,01,51,7.50
2016,04,02,01,52,7.50
2016,04,02,01,53,7.50
2016,04,02,01,54,7.40
2016,04,02,01,55,7.40
2016,04,02,01,56,7.40
2016,04,02,01,57,7.40
2016,04,02,01,58,7.30
2016,04,02,01,59,7.30
2016,04,02,02,00,7.30
2016,04,02,02,01,7.30
2016,04,02,02,02,7.30
2016,04,02,02,03,7.30
2016,04,02,02,04,7.30
2016,04,02,02,05,7.30
2016,04,02,02,06,7.30
2016,04,02,02,07,7.20
2016,04,02,02,08,7.20
2016,04,02,02,09,7.20
2016,04,02,02,10,7.20
2016,04,02,02,11,7.20
2016,04,02,02,12,7.20
2016,04,02,02,13,7.20
2016,04,02,02,14,7.10
2016,04,02,02,15,7.10
2016,04,02,02,16,7.10
2016,04,02,02,17,7.10
2016,04,02,02,18,7.00
2016,04,02,02,19,7.00
2016,04,02,02,20,7.00
2016,04,02,02,21,7.00
2016,04,02,02,22,6.90
2016,04,02,02,23,6.90
2016,04,02,02,24,6.90
2016,04,02,02,25,6.90
2016,04,02,02,26,6.90
2016,04,02,02,27,6.90
2016,04,02,02,28,6.80
2016,04,02,02,29,6.80
2016,04,02,02,30,6.80
2016,04,02,02,31,6.80
2016,04,02,02,32,6.80
2016,04,02,02,33,6.80
2016,04,02,02,34,6.80
2016,04,02,02,35,6.80
2016,04,02,02,36,6.80
2016,04,02,02,37,6.80
2016,04,02,02,38,6.80
2016,04,02,02,39,6.80
2016,04,02,02,40,6.80
2016,04,02,02,41,6.80
2016,04,02,02,42,6.80
2016,04,02,02,43,6.80
2016,04,02,02,44,6.90
2016,04,02,02,45,6.90
2016,04,02,02,46,6.90
2016,04,02,02,47,7.00
2016,04,02,02,48,7.00
2016,04,02,02,49,7.00
2016,04,02,02,50,7.00
2016,04,02,02,51,7.00
2016,04,02,02,52,7.00
2016,04,02,02,53,7.10
2016,04,02,02,54,7.10
2016,04,02,02,55,7.10
2016,04,02,02,56,7.10
2016,04,02,02,57,7.10
2016,04,02,02,58,7.10
2016,04,02,02,59,7.10
2016,04,02,03,00,7.10
2016,04,02,03,01,7.10
2016,04,02,03,02,7.10
2016,04,02,03,03,7.10
2016,04,02,03,04,7.10
2016,04,02,03,05,7.10
2016,04,02,03,06,7.10
2016,04,02,03,07,7.10
2016,04,02,03,08,7.10
2016,04,02,03,09,7.20
2016,04,02,03,10,7.20
2016,04,02,03,11,7.20
2016,04,02,03,12,7.20
2016,04,02,03,13,7.20
2016,04,02,03,14,7.20
2016,04,02,03,15,7.20
2016,04,02,03,16,7.20
2016,04,02,03,17,7.20
2016,04,02,03,18,7.20
2016,04,02,03,19,7.20
2016,04,02,03,20,7.20
2016,04,02,03,21,7.20
2016,04,02,03,22,7.20
2016,04,02,03,23,7.20
2016,04,02,03,24,7.20
2016,04,02,03,25,7.30
2016,04,02,03,26,7.30
2016,04,02,03,27,7.40
2016,04,02,03,28,7.40
2016,04,02,03,29,7.40
2016,04,02,03,30,7.40
2016,04,02,03,31,7.30
2016,04,02,03,32,7.30
2016,04,02,03,33,7.30
2016,04,02,03,34,7.30
2016,04,02,03,35,7.30
2016,04,02,03,36,7.30
2016,04,02,03,37,7.30
2016,04,02,03,38,7.30
2016,04,02,03,39,7.30
2016,04,02,03,40,7.30
2016,04,02,03,41,7.20
2016,04,02,03,42,7.30
2016,04,02,03,43,7.30
2016,04,02,03,44,7.30
2016,04,02,03,45,7.30
2016,04,02,03,46,7.30
2016,04,02,03,47,7.30
2016,04,02,03,48,7.30
2016,04,02,03,49,7.30
2016,04,02,03,50,7.30
2016,04,02,03,51,7.40
2016,04,02,03,52,7.40
2016,04,02,03,53,7.40
2016,04,02,03,54,7.40
2016,04,02,03,55,7.40
2016,04,02,03,56,7.50
2016,04,02,03,57,7.50
2016,04,02,03,58,7.60
2016,04,02,03,59,7.60
2016,04,02,04,00,7.70
2016,04,02,04,01,7.70
2016,04,02,04,02,7.70
2016,04,02,04,03,7.70
2016,04,02,04,04,7.70
2016,04,02,04,05,7.80
2016,04,02,04,06,7.80
2016,04,02,04,07,7.70
2016,04,02,04,08,7.70
2016,04,02,04,09,7.70
2016,04,02,04,10,7.60
2016,04,02,04,11,7.60
2016,04,02,04,12,7.60
2016,04,02,04,13,7.60
2016,04,02,04,14,7.60
2016,04,02,04,15,7.60
2016,04,02,04,16,7.50
2016,04,02,04,17,7.50
2016,04,02,04,18,7.50
2016,04,02,04,19,7.40
2016,04,02,04,20,7.40
2016,04,02,04,21,7.40
2016,04,02,04,22,7.30
2016,04,02,04,23,7.30
2016,04,02,04,24,7.30
2016,04,02,04,25,7.20
2016,04,02,04,26,7.20
2016,04,02,04,27,7.10
2016,04,02,04,28,7.10
2016,04,02,04,29,7.10
2016,04,02,04,30,7.10
2016,04,02,04,31,7.10
2016,04,02,04,32,7.00
2016,04,02,04,33,7.00
2016,04,02,04,34,6.90
2016,04,02,04,35,6.90
2016,04,02,04,36,6.90
2016,04,02,04,37,6.90
2016,04,02,04,38,6.80
2016,04,02,04,39,6.80
2016,04,02,04,40,6.80
2016,04,02,04,41,6.80
2016,04,02,04,42,6.80
2016,04,02,04,43,6.80
2016,04,02,04,44,6.70
2016,04,02,04,45,6.70
2016,04,02,04,46,6.70
2016,04,02,04,47,6.70
2016,04,02,04,48,6.70
2016,04,02,04,49,6.70
2016,04,02,04,50,6.70
2016,04,02,04,51,6.60
2016,04,02,04,52,6.60
2016,04,02,04,53,6.60
2016,04,02,04,54,6.60
2016,04,02,04,55,6.60
2016,04,02,04,56,6.60
2016,04,02,04,57,6.60
2016,04,02,04,58,6.60
2016,04,02,04,59,6.60
2016,04,02,05,00,6.60
2016,04,02,05,01,6.60
2016,04,02,05,02,6.60
2016,04,02,05,03,6.50
2016,04,02,05,04,6.60
2016,04,02,05,05,6.50
2016,04,02,05,06,6.60
2016,04,02,05,07,6.50
2016,04,02,05,08,6.50
2016,04,02,05,09,6.50
2016,04,02,05,10,6.50
2016,04,02,05,11,6.50
2016,04,02,05,12,6.50
2016,04,02,05,13,6.50
2016,04,02,05,14,6.50
2016,04,02,05,15,6.50
2016,04,02,05,16,6.40
2016,04,02,05,17,6.40
2016,04,02,05,18,6.40
2016,04,02,05,19,6.40
2016,04,02,05,20,6.40
2016,04,02,05,21,6.40
2016,04,02,05,22,6.40
2016,04,02,05,23,6.40
2016,04,02,05,24,6.40
2016,04,02,05,25,6.40
2016,04,02,05,26,6.40
2016,04,02,05,27,6.40
2016,04,02,05,28,6.40
2016,04,02,06,19,6.20
2016,04,02,06,20,6.20
2016,04,02,06,21,6.20
2016,04,02,06,22,6.20
2016,04,02,06,23,6.30
2016,04,02,06,24,6.30
2016,04,02,06,25,6.30
2016,04,02,06,26,6.30
2016,04,02,06,27,6.30
2016,04,02,06,28,6.30
2016,04,02,06,29,6.30
2016,04,02,06,30,6.30
2016,04,02,06,31,6.30
2016,04,02,06,32,6.30
2016,04,02,06,33,6.30
2016,04,02,06,34,6.40
2016,04,02,06,35,6.40
2016,04,02,06,36,6.40
2016,04,02,06,37,6.50
2016,04,02,06,38,6.50
2016,04,02,06,39,6.50
2016,04,02,06,40,6.60
2016,04,02,06,41,6.60
2016,04,02,06,42,6.60
2016,04,02,06,43,6.60
2016,04,02,06,44,6.70
2016,04,02,06,45,6.80
2016,04,02,06,46,6.80
2016,04,02,06,47,6.80
2016,04,02,06,48,6.80
2016,04,02,06,49,6.90
2016,04,02,06,50,6.90
2016,04,02,06,51,6.90
2016,04,02,06,52,6.90
2016,04,02,06,53,6.90
2016,04,02,06,54,6.90
2016,04,02,06,55,6.90
2016,04,02,06,56,6.90
2016,04,02,06,57,6.90
2016,04,02,06,58,6.90
2016,04,02,06,59,6.90
2016,04,02,07,00,6.90
2016,04,02,07,01,6.90
2016,04,02,07,02,7.00
2016,04,02,07,03,7.10
2016,04,02,07,04,7.20
2016,04,02,07,05,7.20
2016,04,02,07,06,7.30
2016,04,02,07,07,7.30
2016,04,02,07,08,7.40
2016,04,02,07,09,7.40
2016,04,02,07,10,7.50
2016,04,02,07,11,7.50
2016,04,02,07,12,7.50
2016,04,02,07,13,7.50
2016,04,02,07,14,7.50
2016,04,02,07,15,7.50
2016,04,02,07,16,7.50
2016,04,02,07,17,7.50
2016,04,02,07,18,7.50
2016,04,02,07,19,7.50
2016,04,02,07,20,7.40
2016,04,02,07,21,7.40
2016,04,02,07,22,7.40
2016,04,02,07,23,7.50
2016,04,02,07,24,7.60
2016,04,02,07,25,7.60
2016,04,02,07,26,7.60
2016,04,02,07,27,7.70
2016,04,02,07,28,7.70
2016,04,02,07,29,7.70
2016,04,02,07,30,7.70
2016,04,02,07,31,7.70
2016,04,02,07,32,7.80
2016,04,02,07,33,7.80
2016,04,02,07,34,7.80
2016,04,02,07,35,7.80
2016,04,02,07,36,7.90
2016,04,02,07,37,7.90
2016,04,02,07,38,8.00
2016,04,02,07,39,8.00
2016,04,02,07,40,8.10
2016,04,02,07,41,8.10
2016,04,02,07,42,8.20
2016,04,02,07,43,8.20
2016,04,02,07,44,8.20
2016,04,02,07,45,8.30
2016,04,02,07,46,8.30
2016,04,02,07,47,8.40
2016,04,02,07,48,8.50
2016,04,02,07,49,8.60
2016,04,02,07,50,8.60
2016,04,02,07,51,8.70
2016,04,02,07,52,8.70
2016,04,02,07,53,8.80
2016,04,02,07,54,8.90
2016,04,02,07,55,9.00
2016,04,02,07,56,9.00
2016,04,02,07,57,9.10
2016,04,02,07,58,9.10
2016,04,02,07,59,9.20
2016,04,02,08,00,9.20
2016,04,02,08,01,9.20
2016,04,02,08,02,9.30
2016,04,02,08,03,9.30
2016,04,02,08,04,9.30
2016,04,02,08,05,9.30
2016,04,02,08,06,9.30
2016,04,02,08,07,9.30
2016,04,02,08,08,9.40
2016,04,02,08,09,9.40
2016,04,02,08,10,9.50
2016,04,02,08,11,9.50
2016,04,02,08,12,9.50
2016,04,02,08,13,9.50
2016,04,02,08,14,9.60
2016,04,02,08,15,9.60
2016,04,02,08,16,9.60
2016,04,02,08,17,9.60
2016,04,02,08,18,9.60
2016,04,02,08,19,9.60
2016,04,02,08,20,9.60
2016,04,02,08,21,9.70
2016,04,02,08,22,9.70
2016,04,02,08,23,9.70
2016,04,02,08,24,9.70
2016,04,02,08,25,9.70
2016,04,02,08,26,9.70
2016,04,02,08,27,9.80
2016,04,02,08,28,9.80
2016,04,02,08,29,9.80
2016,04,02,08,30,9.90
2016,04,02,08,31,9.90
2016,04,02,08,32,10.00
2016,04,02,08,33,10.10
2016,04,02,08,34,10.20
2016,04,02,08,35,10.30
2016,04,02,08,36,10.40
2016,04,02,08,37,10.40
2016,04,02,08,38,10.50
2016,04,02,08,39,10.50
2016,04,02,08,40,10.40
2016,04,02,08,41,10.40
2016,04,02,08,42,10.40
2016,04,02,08,43,10.40
2016,04,02,08,44,10.40
2016,04,02,08,45,10.40
2016,04,02,08,46,10.40
2016,04,02,08,47,10.40
2016,04,02,08,48,10.50
2016,04,02,08,49,10.60
2016,04,02,08,50,10.70
2016,04,02,08,51,10.80
2016,04,02,08,52,10.80
2016,04,02,08,53,10.90
2016,04,02,08,54,11.00
2016,04,02,08,55,11.00
2016,04,02,08,56,11.10
2016,04,02,08,57,11.10
2016,04,02,08,58,11.10
2016,04,02,08,59,11.10
2016,04,02,09,00,11.20
2016,04,02,09,01,11.20
2016,04,02,09,02,11.20
2016,04,02,09,03,11.30
2016,04,02,09,04,11.30
2016,04,02,09,05,11.30
2016,04,02,09,06,11.30
2016,04,02,09,07,11.40
2016,04,02,09,08,11.40
2016,04,02,09,09,11.40
2016,04,02,09,10,11.40
2016,04,02,09,11,11.40
2016,04,02,09,12,11.30
2016,04,02,09,13,11.30
2016,04,02,09,14,11.40
2016,04,02,09,15,11.40
2016,04,02,09,16,11.50
2016,04,02,09,17,11.60
2016,04,02,09,18,11.70
2016,04,02,09,19,11.80
2016,04,02,09,20,11.80
2016,04,02,09,21,11.90
2016,04,02,09,22,11.90
2016,04,02,09,23,11.90
2016,04,02,09,24,11.90
2016,04,02,09,25,12.00
2016,04,02,09,26,12.00
2016,04,02,09,27,12.10
2016,04,02,09,28,12.20
2016,04,02,09,29,12.20
2016,04,02,09,30,12.30
2016,04,02,09,31,12.30
2016,04,02,09,32,12.40
2016,04,02,09,33,12.40
2016,04,02,09,34,12.50
2016,04,02,09,35,12.60
2016,04,02,09,36,12.60
2016,04,02,09,37,12.70
2016,04,02,09,38,12.70
2016,04,02,09,39,12.80
2016,04,02,09,40,12.80
2016,04,02,09,41,12.80
2016,04,02,09,42,12.90
2016,04,02,09,43,13.00
2016,04,02,09,44,13.10
2016,04,02,09,45,13.10
2016,04,02,09,46,13.20
2016,04,02,09,47,13.30
2016,04,02,09,48,13.30
2016,04,02,09,49,13.40
2016,04,02,09,50,13.40
2016,04,02,09,51,13.40
2016,04,02,09,52,13.30
2016,04,02,09,53,13.30
2016,04,02,09,54,13.20
2016,04,02,09,55,13.10
2016,04,02,09,56,13.00
2016,04,02,09,57,13.00
2016,04,02,09,58,13.00
2016,04,02,09,59,13.10
2016,04,02,10,00,13.10
2016,04,02,10,01,13.20
2016,04,02,10,02,13.20
2016,04,02,10,03,13.20
2016,04,02,10,04,13.30
2016,04,02,10,05,13.30
2016,04,02,10,06,13.30
2016,04,02,10,07,13.40
2016,04,02,10,08,13.40
2016,04,02,10,09,13.50
2016,04,02,10,10,13.60
2016,04,02,10,11,13.60
2016,04,02,10,12,13.60
2016,04,02,10,13,13.70
2016,04,02,10,14,13.70
2016,04,02,10,15,13.80
2016,04,02,10,16,13.90
2016,04,02,10,17,14.00
2016,04,02,10,18,14.00
2016,04,02,10,19,14.10
2016,04,02,10,20,14.20
2016,04,02,10,21,14.30
2016,04,02,10,22,14.40
2016,04,02,10,23,14.30
2016,04,02,10,24,14.30
2016,04,02,10,25,14.20
2016,04,02,10,26,14.20
2016,04,02,10,27,14.10
2016,04,02,10,28,14.10
2016,04,02,10,29,14.10
2016,04,02,10,30,14.10
2016,04,02,10,31,14.10
2016,04,02,10,32,14.10
2016,04,02,10,33,14.00
2016,04,02,10,34,13.90
2016,04,02,10,35,13.90
2016,04,02,10,36,13.80
2016,04,02,10,37,13.70
2016,04,02,10,38,13.50
2016,04,02,10,39,13.40
2016,04,02,10,40,13.30
2016,04,02,10,41,13.30
2016,04,02,10,42,13.40
2016,04,02,10,43,13.40
2016,04,02,10,44,13.40
2016,04,02,10,45,13.30
2016,04,02,10,46,13.30
2016,04,02,10,47,13.20
2016,04,02,10,48,13.10
2016,04,02,10,49,13.00
2016,04,02,10,50,13.00
2016,04,02,10,51,13.10
2016,04,02,10,52,13.20
2016,04,02,10,53,13.30
2016,04,02,10,54,13.40
2016,04,02,10,55,13.50
2016,04,02,10,56,13.50
2016,04,02,10,57,13.60
2016,04,02,10,58,13.60
2016,04,02,10,59,13.60
2016,04,02,11,00,13.70
2016,04,02,11,01,13.80
2016,04,02,11,02,13.90
2016,04,02,11,03,14.00
2016,04,02,11,04,14.00
2016,04,02,11,05,13.90
2016,04,02,11,06,13.90
2016,04,02,11,07,13.90
2016,04,02,11,08,13.90
2016,04,02,11,09,14.00
2016,04,02,11,10,14.00
2016,04,02,11,11,14.10
2016,04,02,11,12,14.10
2016,04,02,11,13,14.20
2016,04,02,11,14,14.10
2016,04,02,11,15,14.10
2016,04,02,11,16,14.00
2016,04,02,11,17,14.00
2016,04,02,11,18,13.90
2016,04,02,11,19,13.90
2016,04,02,11,20,13.90
2016,04,02,11,21,14.00
2016,04,02,11,22,14.10
2016,04,02,11,23,14.00
2016,04,02,11,24,14.00
2016,04,02,11,25,14.00
2016,04,02,11,26,14.00
2016,04,02,11,27,14.00
2016,04,02,11,28,14.00
2016,04,02,11,29,13.90
2016,04,02,11,30,13.70
2016,04,02,11,31,13.60
2016,04,02,11,32,13.60
2016,04,02,11,33,13.50
2016,04,02,11,34,13.50
2016,04,02,11,35,13.50
2016,04,02,11,36,13.60
2016,04,02,11,37,13.60
2016,04,02,11,38,13.70
2016,04,02,11,39,13.70
2016,04,02,11,40,13.70
2016,04,02,11,41,13.80
2016,04,02,11,42,13.90
2016,04,02,11,43,14.00
2016,04,02,11,44,14.10
2016,04,02,11,45,14.20
2016,04,02,11,46,14.20
2016,04,02,11,47,14.20
2016,04,02,11,48,14.20
2016,04,02,11,49,14.20
2016,04,02,11,50,14.20
2016,04,02,11,51,14.30
2016,04,02,11,52,14.40
2016,04,02,11,53,14.40
2016,04,02,11,54,14.40
2016,04,02,11,55,14.50
2016,04,02,11,56,14.40
2016,04,02,11,57,14.40
2016,04,02,11,58,14.40
2016,04,02,11,59,14.40
2016,04,02,12,00,14.50
2016,04,02,12,01,14.50
2016,04,02,12,02,14.60
2016,04,02,12,03,14.50
2016,04,02,12,04,14.50
2016,04,02,12,05,14.30
2016,04,02,12,06,14.20
2016,04,02,12,07,14.10
2016,04,02,12,08,14.00
2016,04,02,12,09,13.90
2016,04,02,12,10,13.80
2016,04,02,12,11,13.80
2016,04,02,12,12,13.80
2016,04,02,12,13,13.70
2016,04,02,12,14,13.70
2016,04,02,12,15,13.70
2016,04,02,12,16,13.70
2016,04,02,12,17,13.70
2016,04,02,12,18,13.80
2016,04,02,12,19,13.80
2016,04,02,12,20,13.80
2016,04,02,12,21,13.80
2016,04,02,12,22,13.70
2016,04,02,12,23,13.70
2016,04,02,12,24,13.70
2016,04,02,12,25,13.70
2016,04,02,12,26,13.50
2016,04,02,12,27,13.50
2016,04,02,12,28,13.50
2016,04,02,12,29,13.50
2016,04,02,12,30,13.60
2016,04,02,12,31,13.70
2016,04,02,12,32,13.70
2016,04,02,12,33,13.80
2016,04,02,12,34,13.90
2016,04,02,12,35,13.90
2016,04,02,12,36,14.00
2016,04,02,12,37,14.00
2016,04,02,12,38,14.10
2016,04,02,12,39,14.10
2016,04,02,12,40,14.10
2016,04,02,12,41,14.10
2016,04,02,12,42,14.10
2016,04,02,12,43,14.10
2016,04,02,12,44,14.10
2016,04,02,12,45,14.00
2016,04,02,12,46,13.90
2016,04,02,12,47,14.00
2016,04,02,12,48,14.00
2016,04,02,12,49,14.00
2016,04,02,12,50,13.90
2016,04,02,12,51,14.00
2016,04,02,12,52,14.00
2016,04,02,12,53,14.10
2016,04,02,12,54,14.20
2016,04,02,12,55,14.30
2016,04,02,12,56,14.30
2016,04,02,12,57,14.30
2016,04,02,12,58,14.30
2016,04,02,12,59,14.40
2016,04,02,13,00,14.40
2016,04,02,13,01,14.40
2016,04,02,13,02,14.40
2016,04,02,13,03,14.30
2016,04,02,13,04,14.30
2016,04,02,13,05,14.30
2016,04,02,13,06,14.30
2016,04,02,13,07,14.40
2016,04,02,13,08,14.40
2016,04,02,13,09,14.40
2016,04,02,13,10,14.40
2016,04,02,13,11,14.40
2016,04,02,13,12,14.40
2016,04,02,13,13,14.30
2016,04,02,13,14,14.30
2016,04,02,13,15,14.30
2016,04,02,13,16,14.20
2016,04,02,13,17,14.10
2016,04,02,13,18,14.10
2016,04,02,13,19,14.00
2016,04,02,13,20,14.00
2016,04,02,13,21,13.90
2016,04,02,13,22,13.80
2016,04,02,13,23,13.70
2016,04,02,13,24,13.70
2016,04,02,13,25,13.70
2016,04,02,13,26,13.70
2016,04,02,13,27,13.70
2016,04,02,13,28,13.70
2016,04,02,13,29,13.80
2016,04,02,13,30,13.80
2016,04,02,13,31,13.80
2016,04,02,13,32,13.80
2016,04,02,13,33,13.80
2016,04,02,13,34,13.80
2016,04,02,13,35,13.80
2016,04,02,13,36,13.90
2016,04,02,13,37,13.90
2016,04,02,13,38,14.00
2016,04,02,13,39,14.10
2016,04,02,13,40,14.10
2016,04,02,13,41,14.20
2016,04,02,13,42,14.20
2016,04,02,13,43,14.30
2016,04,02,13,44,14.30
2016,04,02,13,45,14.40
2016,04,02,13,46,14.40
2016,04,02,13,47,14.40
2016,04,02,13,48,14.40
2016,04,02,13,49,14.40
2016,04,02,13,50,14.30
2016,04,02,13,51,14.30
2016,04,02,13,52,14.30
2016,04,02,13,53,14.30
2016,04,02,13,54,14.30
2016,04,02,13,55,14.30
2016,04,02,13,56,14.30
2016,04,02,13,57,14.30
2016,04,02,13,58,14.30
2016,04,02,13,59,14.30
2016,04,02,14,00,14.40
2016,04,02,14,01,14.50
2016,04,02,14,02,14.70
2016,04,02,14,03,14.80
2016,04,02,14,04,14.90
2016,04,02,14,05,15.00
2016,04,02,14,06,15.00
2016,04,02,14,07,15.00
2016,04,02,14,08,15.00
2016,04,02,14,09,14.90
2016,04,02,14,10,14.90
2016,04,02,14,11,14.80
2016,04,02,14,12,14.80
2016,04,02,14,13,14.70
2016,04,02,14,14,14.60
2016,04,02,14,15,14.50
2016,04,02,14,16,14.40
2016,04,02,14,17,14.30
2016,04,02,14,18,14.30
2016,04,02,14,19,14.30
2016,04,02,14,20,14.30
2016,04,02,14,21,14.30
2016,04,02,14,22,14.30
2016,04,02,14,23,14.40
2016,04,02,14,24,14.40
2016,04,02,14,25,14.50
2016,04,02,14,26,14.50
2016,04,02,14,27,14.60
2016,04,02,14,28,14.70
2016,04,02,14,29,14.70
2016,04,02,14,30,14.80
2016,04,02,14,31,14.90
2016,04,02,14,32,14.90
2016,04,02,14,33,14.90
2016,04,02,14,34,14.90
2016,04,02,14,35,14.90
2016,04,02,14,36,14.90
2016,04,02,14,37,14.90
2016,04,02,14,38,14.90
2016,04,02,14,39,14.90
2016,04,02,14,40,14.90
2016,04,02,14,41,15.00
2016,04,02,14,42,15.00
2016,04,02,14,43,15.00
2016,04,02,14,44,15.00
2016,04,02,14,45,15.00
2016,04,02,14,46,15.20
2016,04,02,14,47,15.30
2016,04,02,14,48,15.20
2016,04,02,14,49,15.20
2016,04,02,14,50,15.10
2016,04,02,14,51,15.00
2016,04,02,14,52,14.90
2016,04,02,14,53,14.90
2016,04,02,14,54,14.90
2016,04,02,14,55,14.80
2016,04,02,14,56,14.80
2016,04,02,14,57,14.70
2016,04,02,14,58,14.70
2016,04,02,14,59,14.70
2016,04,02,15,00,14.70
2016,04,02,15,01,14.70
2016,04,02,15,02,14.80
2016,04,02,15,03,14.80
2016,04,02,15,04,14.90
2016,04,02,15,05,14.90
2016,04,02,15,06,15.00
2016,04,02,15,07,14.90
2016,04,02,15,08,14.80
2016,04,02,15,09,14.80
2016,04,02,15,10,14.70
2016,04,02,15,11,14.80
2016,04,02,15,12,14.80
2016,04,02,15,13,14.80
2016,04,02,15,14,14.80
2016,04,02,15,15,14.80
2016,04,02,15,16,14.80
2016,04,02,15,17,14.80
2016,04,02,15,18,14.80
2016,04,02,15,19,14.80
2016,04,02,15,20,14.80
2016,04,02,15,21,14.80
2016,04,02,15,22,14.80
2016,04,02,15,23,14.80
2016,04,02,15,24,14.80
2016,04,02,15,25,14.90
2016,04,02,15,26,14.90
2016,04,02,15,27,15.00
2016,04,02,15,28,14.90
2016,04,02,15,29,14.90
2016,04,02,15,30,14.80
2016,04,02,15,31,14.80
2016,04,02,15,32,14.80
2016,04,02,15,33,14.80
2016,04,02,15,34,14.80
2016,04,02,15,35,14.90
2016,04,02,15,36,14.90
2016,04,02,15,37,15.00
2016,04,02,15,38,15.00
2016,04,02,15,39,15.10
2016,04,02,15,40,15.10
2016,04,02,15,41,15.20
2016,04,02,15,42,15.20
2016,04,02,15,43,15.10
2016,04,02,15,44,15.10
2016,04,02,15,45,15.10
2016,04,02,15,46,15.10
2016,04,02,15,47,15.10
2016,04,02,15,48,15.10
2016,04,02,15,49,15.00
2016,04,02,15,50,15.00
2016,04,02,15,51,15.00
2016,04,02,15,52,15.00
2016,04,02,15,53,15.00
2016,04,02,15,54,15.00
2016,04,02,15,55,15.00
2016,04,02,15,56,14.90
2016,04,02,15,57,14.90
2016,04,02,15,58,14.90
2016,04,02,15,59,14.90
2016,04,02,16,00,14.90
2016,04,02,16,01,14.90
2016,04,02,16,02,14.90
2016,04,02,16,03,14.90
2016,04,02,16,04,14.90
2016,04,02,16,05,14.80
2016,04,02,16,06,14.80
2016,04,02,16,07,14.80
2016,04,02,16,08,14.80
2016,04,02,16,09,14.80
2016,04,02,16,10,14.80
2016,04,02,16,11,14.80
2016,04,02,16,12,14.80
2016,04,02,16,13,14.80
2016,04,02,16,14,14.80
2016,04,02,16,15,14.80
2016,04,02,16,16,14.80
2016,04,02,16,17,14.80
2016,04,02,16,18,14.80
2016,04,02,16,19,14.80
2016,04,02,16,20,14.80
2016,04,02,16,21,14.80
2016,04,02,16,22,14.80
2016,04,02,16,23,14.80
2016,04,02,16,24,14.80
2016,04,02,16,25,14.80
2016,04,02,16,26,14.80
2016,04,02,16,27,14.80
2016,04,02,16,28,14.80
2016,04,02,16,29,14.80
2016,04,02,16,30,14.90
2016,04,02,16,31,14.90
2016,04,02,16,32,14.90
2016,04,02,16,33,14.90
2016,04,02,16,34,14.80
2016,04,02,16,35,14.80
2016,04,02,16,36,14.80
2016,04,02,16,37,14.80
2016,04,02,16,38,14.80
2016,04,02,16,39,14.90
2016,04,02,16,40,14.90
2016,04,02,16,41,14.90
2016,04,02,16,42,14.90
2016,04,02,16,43,14.90
2016,04,02,16,44,14.90
2016,04,02,16,45,14.90
2016,04,02,16,46,14.90
2016,04,02,16,47,14.90
2016,04,02,16,48,14.90
2016,04,02,16,49,14.90
2016,04,02,16,50,14.90
2016,04,02,16,51,14.80
2016,04,02,16,52,14.80
2016,04,02,16,53,14.80
2016,04,02,16,54,14.80
2016,04,02,16,55,14.80
2016,04,02,16,56,14.80
2016,04,02,16,57,14.80
2016,04,02,16,58,14.80
2016,04,02,16,59,14.80
2016,04,02,17,00,14.80
2016,04,02,17,01,14.80
2016,04,02,17,02,14.80
2016,04,02,17,03,14.80
2016,04,02,17,04,14.80
2016,04,02,17,05,14.80
2016,04,02,17,06,14.80
2016,04,02,17,07,14.80
2016,04,02,17,08,14.80
2016,04,02,17,09,14.80
2016,04,02,17,10,14.80
2016,04,02,17,11,14.80
2016,04,02,17,12,14.80
2016,04,02,17,13,14.80
2016,04,02,17,14,14.80
2016,04,02,17,15,14.80
2016,04,02,17,16,14.80
2016,04,02,17,17,14.80
2016,04,02,17,18,14.80
2016,04,02,17,19,14.80
2016,04,02,17,20,14.80
2016,04,02,17,21,14.80
2016,04,02,17,22,14.80
2016,04,02,17,23,14.80
2016,04,02,17,24,14.80
2016,04,02,17,25,14.80
2016,04,02,17,26,14.80
2016,04,02,17,27,14.70
2016,04,02,17,28,14.70
2016,04,02,17,29,14.70
2016,04,02,17,30,14.70
2016,04,02,17,31,14.70
2016,04,02,17,32,14.70
2016,04,02,17,33,14.70
2016,04,02,17,34,14.70
2016,04,02,17,35,14.70
2016,04,02,17,36,14.70
2016,04,02,17,37,14.70
2016,04,02,17,38,14.70
2016,04,02,17,39,14.70
2016,04,02,17,40,14.70
2016,04,02,17,41,14.70
2016,04,02,17,42,14.60
2016,04,02,17,43,14.60
2016,04,02,17,44,14.60
2016,04,02,17,45,14.60
2016,04,02,17,46,14.60
2016,04,02,17,47,14.60
2016,04,02,17,48,14.60
2016,04,02,17,49,14.60
2016,04,02,17,50,14.50
2016,04,02,17,51,14.50
2016,04,02,17,52,14.50
2016,04,02,17,53,14.50
2016,04,02,17,54,14.50
2016,04,02,17,55,14.50
2016,04,02,17,56,14.50
2016,04,02,17,57,14.50
2016,04,02,17,58,14.50
2016,04,02,17,59,14.50
2016,04,02,18,00,14.40
2016,04,02,18,01,14.40
2016,04,02,18,02,14.40
2016,04,02,18,03,14.40
2016,04,02,18,04,14.40
2016,04,02,18,05,14.40
2016,04,02,18,06,14.40
2016,04,02,18,07,14.40
2016,04,02,18,08,14.30
2016,04,02,18,09,14.30
2016,04,02,18,10,14.30
2016,04,02,18,11,14.30
2016,04,02,18,12,14.30
2016,04,02,18,13,14.30
2016,04,02,18,14,14.30
2016,04,02,18,15,14.30
2016,04,02,18,16,14.30
2016,04,02,18,17,14.20
2016,04,02,18,18,14.20
2016,04,02,18,19,14.20
2016,04,02,18,20,14.20
2016,04,02,18,21,14.20
2016,04,02,18,22,14.10
2016,04,02,18,23,14.10
2016,04,02,18,24,14.10
2016,04,02,18,25,14.10
2016,04,02,18,26,14.10
2016,04,02,18,27,14.10
2016,04,02,18,28,14.00